FENGYUN 1C DEB

Satellite information

Favourite Embed

Satellite Type and Status

DEBRISIN ORBIT

Key statistics

Satellite FENGYUN 1C DEB at a glance.

Uptime

9495

Days in orbit

Revolutions

≈ 14.2

Per day

Orbit

SSO

Sun Synchronous Orbit

Inclination

98.2

Latest

Satellite identification and parameters

Extended collection of information and parameters for FENGYUN 1C DEB.

Object identification

Identified? True

Debris? True

Object name: FENGYUN 1C DEB

International designator: 1999-025EZG

Object number (NORAD): 46451

Object ID (CCSDS): 46451

Country: PEOPLES REPUBLIC OF CHINA (PRC)

Current information (Y/N): Y

RCS size: SMALL

Orbital parameters

Period: 101.613 minutes

Inclination: 98.1644 deg

SMA: 7213.169 km

Apoapsis: 965.392 km

Periapsis: 704.677 km

RAAN: 159.2107 deg

Eccentricy: 0.0180721

Argument of periapsis: 121.4295 deg

Mean anomaly: 298.9741 deg

Mean motion: 14.1714262 rev/day

Mean motion (dot): 0.00013025 rev/day2

B* drag term: 0.0055135 1/REarth

Two-line elements (TLE)

Creation date: May 2, 2025, 3:16 p.m.

Reference frame: TEME

Reference center: EARTH

Epoch: May 2, 2025, 7:43 a.m. UTC

TLE line 0: 0 FENGYUN 1C DEB

TLE line 1: 1 46451U 99025EZG 25122.32201682 .00013025 00000-0 55135-2 0 9993

TLE line 2: 2 46451 98.1644 159.2107 0180721 121.4295 298.9741 14.17142620538242

Live tracking on map

Real-time ground track for satellite FENGYUN 1C DEB.

In-orbit conjunctions

A list of the most updated potential collisions computed for object FENGYUN 1C DEB.

Target Orbit TCA Probability of collision Miss distance Type
SL-8 R/B LEO 2024-11-25 19:34:24 0.0001675035 190.0 (m) ROCKET BODY
FENGYUN 1C DEB SSO 2024-11-14 23:39:45 0.0002801681 234.0 (m) DEBRIS

Associated space launch

Chinese polar orbiting meteorological satellite

FENGYUN 1C DEB was lifted into orbit during the mission ‘Long March 4B | Feng Yun 1C’, on board a Long March 4B space rocket.

The launch took place on May 10, 1999, 1:33 a.m. from Launch Complex 7.

For more information about the launch, click the button.

Launch to space Long March 4B | Feng Yun 1C
Long March 4B | Feng Yun 1C

Agency: N/A

Status: Launch Successful

Launch date: May 10, 1999, 1:33 a.m. UTC

Rocket: Long March 4B

Launch pad: Launch Complex 7

Location: Taiyuan Satellite Launch Center, People's Republic of China

...

Latest news about this satellite

There are no fresh news available about this satellite. Check back as we update our databases every day.


Newsletter sign-up

Weekly statistics, charts and insights to help you stay on top of the space industry.